Regional Weather Roundup
Issued by NWS

Current Version | Previous Version | Text Only | Print | Product List | Glossary On
Versions: 1 2 3 4 5 6 7 8 9 10 11 12 13 14 15 16 17 18 19 20 21 22 23 24 25 26 27 28 29 30 31 32 33 34 35 36 37 38 39 40 41 42 43 44 45 46 47 48 49 50
000
ASUS45 KREV 210310
RWRNV
NEVADA REGIONAL WEATHER ROUNDUP
NATIONAL WEATHER SERVICE RENO NV
800 PM PDT WED AUG 20 2014

NOTE: "FAIR" INDICATES FEW OR NO CLOUDS BELOW 12,000 FEET WITH NO
SIGNIFICANT WEATHER AND/OR OBSTRUCTIONS TO VISIBILITY.

NVZ001-003-004-210400-
WESTERN NEVADA

CITY           SKY/WX    TMP DP  RH WIND       PRES   REMARKS
RENO           PTCLDY    79  40  24 W16G23    29.92R
CARSON CITY    FAIR      75  39  27 W6        29.95R
MINDEN         FAIR      73  39  29 NW12G18   29.98
SLIDE MTN        N/A     54  34  47 W25         N/A
PYRAMID LAKE     N/A     84 N/A N/A W12         N/A
FALLON         MOCLDY    85  31  14 NW15      29.85R
LOVELOCK       CLEAR     85  33  15 NW10      29.84R
HAWTHORNE      CLEAR     84  39  20 NW12      29.87R
$$

NVZ002-CAZ072-073-210400-
NORTHERN AND CENTRAL SIERRA

CITY           SKY/WX    TMP DP  RH WIND       PRES   REMARKS
S. LAKE TAHOE  CLEAR     67  42  40 S10       30.10R
TRUCKEE        CLEAR     64  39  39 W10       30.08R
SQUAW VLY 8000   N/A     54  36  50 VRB16       N/A
SUSANVILLE     CLEAR     77  39  25 W8        29.94R
BLUE CANYON    CLEAR     63  44  50 S5        30.09R
MAMMOTH LAKES  FAIR      66  37  34 SW12      30.12S
BRIDGEPORT     CLOUDY    66  43  43 SW13G21   30.09R
$$

NVZ030-031-036-210400-
NORTHERN NEVADA

CITY           SKY/WX    TMP DP  RH WIND       PRES   REMARKS
ELKO           CLOUDY    75  40  28 S8        29.93R
WINNEMUCCA     PTCLDY    76  33  21 W5        29.87R
WENDOVER       CLOUDY    75  45  33 CALM      29.94R
$$

NVZ035-037-210400-
CENTRAL NEVADA

CITY           SKY/WX    TMP DP  RH WIND       PRES   REMARKS
ELY            PTCLDY    61  47  59 CALM      30.09S
EUREKA           N/A     70  39  32 S7        30.01R
$$

NVZ013-014-210400-
SOUTH CENTRAL NEVADA

CITY           SKY/WX    TMP DP  RH WIND       PRES   REMARKS
TONOPAH        CLEAR     74  26  16 S9        30.03R
$$

NVZ017-020-022-210400-
SOUTHERN NEVADA

CITY           SKY/WX    TMP DP  RH WIND       PRES   REMARKS
LAS VEGAS      PTCLDY    85  50  29 S8        29.83R
N. LAS VEGAS   PTCLDY    86  46  24 SE8       29.85S
NELLIS AFB     PTCLDY    89  47  23 SW8       29.84R
HENDERSON      PTCLDY    78  57  48 CALM      29.89S
MERCURY        CLEAR     82  38  20 S8        29.92S
$$


USA.gov is the U.S. government's official web portal to all federal, state and local government web resources and services.